Time,TemperatureF,DewpointF,PressureIn,WindDirection,WindDirectionDegrees,WindSpeedMPH,WindSpeedGustMPH,Humidity,HourlyPrecipIn,Conditions,Clouds,dailyrainin,SoftwareType,DateUTC
2013-06-09 00:14:00,66.4,62.0,29.94,SSW,195,0.0,0.0,86,0.00,,,0.00,weatherlink.com 1.10,2013-06-09 04:14:00,
2013-06-09 00:30:00,66.6,62.0,29.95,SSW,195,0.0,0.0,86,0.00,,,0.00,weatherlink.com 1.10,2013-06-09 04:30:00,
2013-06-09 00:45:00,66.7,62.0,29.95,SSW,195,0.0,0.0,86,0.00,,,0.00,weatherlink.com 1.10,2013-06-09 04:45:00,
2013-06-09 01:00:00,66.5,63.0,29.95,SSW,195,0.0,0.0,87,0.00,,,0.00,weatherlink.com 1.10,2013-06-09 05:00:00,
2013-06-09 01:15:00,66.3,63.0,29.95,SSW,195,0.0,0.0,88,0.00,,,0.00,weatherlink.com 1.10,2013-06-09 05:15:00,
2013-06-09 01:30:00,65.8,63.0,29.94,SSW,195,0.0,0.0,89,0.00,,,0.00,weatherlink.com 1.10,2013-06-09 05:30:00,
2013-06-09 01:45:00,65.2,62.0,29.94,SSW,195,0.0,0.0,90,0.00,,,0.00,weatherlink.com 1.10,2013-06-09 05:45:00,
2013-06-09 02:00:00,64.7,62.0,29.94,SSW,195,0.0,0.0,91,0.00,,,0.00,weatherlink.com 1.10,2013-06-09 06:00:00,
2013-06-09 02:15:00,64.2,62.0,29.94,SSW,195,0.0,0.0,92,0.00,,,0.00,weatherlink.com 1.10,2013-06-09 06:15:00,
2013-06-09 02:30:00,64.1,62.0,29.93,SSW,195,0.0,-999.0,92,-99.99,,,0.00,weatherlink.com 1.10,2013-06-09 06:30:00,
2013-06-09 02:45:00,64.0,62.0,29.93,SSW,195,0.0,0.0,93,0.00,,,0.00,weatherlink.com 1.10,2013-06-09 06:45:00,
2013-06-09 03:00:00,63.6,62.0,29.93,SSW,195,0.0,0.0,93,0.00,,,0.00,weatherlink.com 1.10,2013-06-09 07:00:00,
2013-06-09 03:15:00,63.6,62.0,29.93,SE,129,0.0,0.0,94,0.00,,,0.00,weatherlink.com 1.10,2013-06-09 07:15:00,
2013-06-09 03:30:00,63.6,62.0,29.93,East,84,0.0,0.0,94,0.00,,,0.00,weatherlink.com 1.10,2013-06-09 07:30:00,
2013-06-09 03:45:00,63.4,62.0,29.93,ESE,104,0.0,0.0,94,0.00,,,0.00,weatherlink.com 1.10,2013-06-09 07:45:00,
2013-06-09 04:00:00,62.7,61.0,29.93,ESE,105,0.0,0.0,94,0.00,,,0.00,weatherlink.com 1.10,2013-06-09 08:00:00,
2013-06-09 04:15:00,62.7,61.0,29.94,East,101,0.0,0.0,95,0.00,,,0.00,weatherlink.com 1.10,2013-06-09 08:15:00,
2013-06-09 04:30:00,63.3,62.0,29.93,ESE,102,0.0,0.0,94,0.00,,,0.00,weatherlink.com 1.10,2013-06-09 08:30:00,
2013-06-09 04:45:00,63.2,62.0,29.94,East,101,0.0,0.0,94,0.00,,,0.00,weatherlink.com 1.10,2013-06-09 08:45:00,
2013-06-09 05:00:00,63.3,62.0,29.94,ESE,102,0.0,0.0,94,0.00,,,0.00,weatherlink.com 1.10,2013-06-09 09:00:00,
2013-06-09 05:15:00,63.3,62.0,29.94,East,101,0.0,0.0,94,0.00,,,0.00,weatherlink.com 1.10,2013-06-09 09:15:00,
2013-06-09 05:30:00,63.1,61.0,29.94,East,101,0.0,0.0,94,0.00,,,0.00,weatherlink.com 1.10,2013-06-09 09:30:00,
2013-06-09 05:45:00,63.2,62.0,29.95,SE,129,0.0,2.0,94,0.00,,,0.00,weatherlink.com 1.10,2013-06-09 09:45:00,
2013-06-09 06:00:00,63.5,62.0,29.94,East,98,0.0,1.0,93,0.00,,,0.00,weatherlink.com 1.10,2013-06-09 10:00:00,
2013-06-09 06:15:00,63.4,61.0,29.95,East,99,0.0,0.0,93,0.00,,,0.00,weatherlink.com 1.10,2013-06-09 10:15:00,
2013-06-09 06:30:00,63.4,61.0,29.95,East,99,0.0,0.0,92,0.00,,,0.00,weatherlink.com 1.10,2013-06-09 10:30:00,
2013-06-09 06:45:00,63.3,61.0,29.95,East,98,0.0,0.0,93,0.00,,,0.00,weatherlink.com 1.10,2013-06-09 10:45:00,
2013-06-09 07:00:00,63.2,62.0,29.95,East,99,0.0,0.0,94,0.00,,,0.00,weatherlink.com 1.10,2013-06-09 11:00:00,
2013-06-09 07:15:00,63.3,62.0,29.95,East,99,0.0,0.0,94,0.00,,,0.00,weatherlink.com 1.10,2013-06-09 11:15:00,
2013-06-09 07:30:00,63.6,62.0,29.95,SE,129,0.0,0.0,94,0.00,,,0.00,weatherlink.com 1.10,2013-06-09 11:30:00,
2013-06-09 07:45:00,64.1,62.0,29.95,SE,129,0.0,0.0,94,0.00,,,0.00,weatherlink.com 1.10,2013-06-09 11:45:00,
2013-06-09 08:00:00,64.6,63.0,29.95,SE,129,0.0,0.0,94,0.00,,,0.00,weatherlink.com 1.10,2013-06-09 12:00:00,
2013-06-09 08:15:00,64.8,63.0,29.95,SE,129,0.0,0.0,93,0.00,,,0.00,weatherlink.com 1.10,2013-06-09 12:15:00,
2013-06-09 08:30:00,65.2,63.0,29.95,SE,129,0.0,0.0,93,0.00,,,0.00,weatherlink.com 1.10,2013-06-09 12:30:00,
2013-06-09 08:45:00,67.3,64.0,29.94,SSE,149,1.0,2.0,89,0.00,,,0.00,weatherlink.com 1.10,2013-06-09 12:45:00,
2013-06-09 09:00:00,68.9,64.0,29.94,East,95,1.0,2.0,84,0.00,,,0.00,weatherlink.com 1.10,2013-06-09 13:00:00,
2013-06-09 09:15:00,69.6,65.0,29.94,SE,129,0.0,1.0,84,0.00,,,0.00,weatherlink.com 1.10,2013-06-09 13:15:00,
2013-06-09 09:30:00,69.8,64.0,29.94,ESE,110,0.0,1.0,83,0.00,,,0.00,weatherlink.com 1.10,2013-06-09 13:30:00,
2013-06-09 09:45:00,70.4,64.0,29.94,SE,142,1.0,2.0,81,0.00,,,0.00,weatherlink.com 1.10,2013-06-09 13:45:00,
2013-06-09 10:00:00,71.1,65.0,29.95,SE,139,0.0,2.0,81,0.00,,,0.00,weatherlink.com 1.10,2013-06-09 14:00:00,
2013-06-09 10:15:00,72.6,65.0,29.94,SW,235,2.0,2.0,78,0.00,,,0.00,weatherlink.com 1.10,2013-06-09 14:15:00,
2013-06-09 10:30:00,73.2,65.0,29.94,SSE,150,1.0,3.0,76,0.00,,,0.00,weatherlink.com 1.10,2013-06-09 14:30:00,
2013-06-09 10:46:00,74.4,65.0,29.93,East,95,2.0,5.0,72,0.00,,,0.00,weatherlink.com 1.10,2013-06-09 14:46:00,
2013-06-09 11:01:00,75.6,65.0,29.93,SE,143,1.0,4.0,70,0.00,,,0.00,weatherlink.com 1.10,2013-06-09 15:01:00,
2013-06-09 11:16:00,77.9,67.0,29.93,WSW,245,0.0,4.0,70,0.00,,,0.00,weatherlink.com 1.10,2013-06-09 15:16:00,
2013-06-09 11:31:00,78.5,64.0,29.93,ENE,77,1.0,5.0,61,0.00,,,0.00,weatherlink.com 1.10,2013-06-09 15:31:00,
2013-06-09 11:46:00,78.9,63.0,29.93,SE,145,2.0,5.0,59,0.00,,,0.00,weatherlink.com 1.10,2013-06-09 15:46:00,
2013-06-09 12:46:00,79.1,62.0,29.91,SSW,208,2.0,5.0,56,0.00,,,0.00,weatherlink.com 1.10,2013-06-09 16:46:00,
2013-06-09 13:01:00,80.1,62.0,29.90,SSW,204,1.0,5.0,55,0.00,,,0.00,weatherlink.com 1.10,2013-06-09 17:01:00,
2013-06-09 13:16:00,80.9,61.0,29.89,ESE,117,4.0,8.0,51,0.00,,,0.00,weatherlink.com 1.10,2013-06-09 17:16:00,
2013-06-09 13:31:00,80.3,61.0,29.89,ENE,78,1.0,4.0,52,0.00,,,0.00,weatherlink.com 1.10,2013-06-09 17:31:00,
2013-06-09 13:46:00,80.4,62.0,29.89,ENE,75,8.0,8.0,54,0.00,,,0.00,weatherlink.com 1.10,2013-06-09 17:46:00,
2013-06-09 14:16:00,78.5,61.0,29.88,ESE,104,1.0,3.0,56,0.00,,,0.00,weatherlink.com 1.10,2013-06-09 18:16:00,
2013-06-09 14:31:00,77.2,61.0,29.88,ESE,104,0.0,4.0,58,0.00,,,0.00,weatherlink.com 1.10,2013-06-09 18:31:00,
2013-06-09 14:46:00,76.1,62.0,29.88,East,93,0.0,5.0,62,0.00,,,0.00,weatherlink.com 1.10,2013-06-09 18:46:00,
2013-06-09 15:01:00,75.5,61.0,29.87,ESE,105,3.0,4.0,62,0.00,,,0.00,weatherlink.com 1.10,2013-06-09 19:01:00,
2013-06-09 15:16:00,74.1,64.0,29.86,ESE,111,4.0,5.0,70,0.00,,,0.00,weatherlink.com 1.10,2013-06-09 19:16:00,
2013-06-09 15:31:00,72.8,62.0,29.85,SSW,207,2.0,8.0,70,0.00,,,0.00,weatherlink.com 1.10,2013-06-09 19:31:00,
2013-06-09 15:46:00,73.9,64.0,29.85,SE,127,0.0,6.0,70,0.00,,,0.00,weatherlink.com 1.10,2013-06-09 19:46:00,
2013-06-09 16:01:00,75.3,65.0,29.84,West,271,2.0,5.0,70,0.00,,,0.00,weatherlink.com 1.10,2013-06-09 20:01:00,
2013-06-09 16:16:00,74.8,64.0,29.83,SE,143,1.0,6.0,70,0.00,,,0.00,weatherlink.com 1.10,2013-06-09 20:16:00,
2013-06-09 16:31:00,74.1,65.0,29.83,East,94,3.0,5.0,72,0.00,,,0.00,weatherlink.com 1.10,2013-06-09 20:31:00,
2013-06-09 16:46:00,73.8,65.0,29.83,WSW,243,1.0,4.0,74,0.00,,,0.00,weatherlink.com 1.10,2013-06-09 20:46:00,
2013-06-09 17:01:00,74.3,66.0,29.83,SSE,160,4.0,8.0,75,0.00,,,0.00,weatherlink.com 1.10,2013-06-09 21:01:00,
2013-06-09 17:16:00,74.1,65.0,29.83,ESE,120,0.0,5.0,74,0.00,,,0.00,weatherlink.com 1.10,2013-06-09 21:16:00,
2013-06-09 17:31:00,74.3,66.0,29.83,SE,143,1.0,4.0,74,0.00,,,0.00,weatherlink.com 1.10,2013-06-09 21:31:00,
2013-06-09 17:46:00,74.5,66.0,29.82,SE,127,0.0,2.0,74,0.00,,,0.00,weatherlink.com 1.10,2013-06-09 21:46:00,
2013-06-09 18:01:00,73.1,65.0,29.82,ESE,114,1.0,4.0,76,0.00,,,0.00,weatherlink.com 1.10,2013-06-09 22:01:00,
2013-06-09 18:17:00,72.8,66.0,29.81,SSE,156,0.0,4.0,78,0.00,,,0.00,weatherlink.com 1.10,2013-06-09 22:17:00,
2013-06-09 18:31:00,73.2,66.0,29.81,East,94,0.0,4.0,78,0.00,,,0.00,weatherlink.com 1.10,2013-06-09 22:31:00,
2013-06-09 18:47:00,73.0,66.0,29.80,South,178,4.0,4.0,79,0.00,,,0.00,weatherlink.com 1.10,2013-06-09 22:47:00,
2013-06-09 19:02:00,72.7,66.0,29.80,SE,139,1.0,4.0,80,0.00,,,0.00,weatherlink.com 1.10,2013-06-09 23:02:00,
2013-06-09 19:17:00,72.1,66.0,29.80,SE,143,0.0,7.0,81,0.00,,,0.00,weatherlink.com 1.10,2013-06-09 23:17:00,
2013-06-09 19:32:00,71.9,66.0,29.80,SSE,167,0.0,2.0,82,0.00,,,0.00,weatherlink.com 1.10,2013-06-09 23:32:00,
2013-06-09 19:47:00,71.7,66.0,29.80,SSW,193,0.0,2.0,83,0.00,,,0.00,weatherlink.com 1.10,2013-06-09 23:47:00,
2013-06-09 20:02:00,71.2,67.0,29.80,SSW,193,0.0,0.0,85,0.00,,,0.00,weatherlink.com 1.10,2013-06-10 00:02:00,
2013-06-09 20:17:00,70.0,67.0,29.80,SSW,193,0.0,0.0,89,0.01,,,0.01,weatherlink.com 1.10,2013-06-10 00:17:00,
2013-06-09 20:32:00,69.1,66.0,29.80,SSW,193,0.0,0.0,91,0.03,,,0.03,weatherlink.com 1.10,2013-06-10 00:32:00,
2013-06-09 20:47:00,68.8,66.0,29.79,SSW,193,0.0,0.0,92,0.04,,,0.04,weatherlink.com 1.10,2013-06-10 00:47:00,
2013-06-09 21:02:00,68.5,67.0,29.77,ESE,103,0.0,0.0,93,0.04,,,0.04,weatherlink.com 1.10,2013-06-10 01:02:00,
2013-06-09 21:17:00,68.2,66.0,29.77,ESE,103,0.0,0.0,93,0.03,,,0.04,weatherlink.com 1.10,2013-06-10 01:17:00,
2013-06-09 21:32:00,68.0,66.0,29.77,ESE,103,0.0,0.0,94,0.01,,,0.04,weatherlink.com 1.10,2013-06-10 01:32:00,
2013-06-09 21:47:00,67.7,66.0,29.76,ESE,103,0.0,0.0,94,0.00,,,0.04,weatherlink.com 1.10,2013-06-10 01:47:00,
2013-06-09 22:02:00,67.6,66.0,29.76,ESE,111,0.0,0.0,95,0.00,,,0.04,weatherlink.com 1.10,2013-06-10 02:02:00,
2013-06-09 22:17:00,67.5,66.0,29.76,ESE,112,0.0,0.0,95,0.00,,,0.04,weatherlink.com 1.10,2013-06-10 02:17:00,
2013-06-09 22:32:00,67.6,66.0,29.76,SSW,204,0.0,2.0,95,0.00,,,0.04,weatherlink.com 1.10,2013-06-10 02:32:00,
2013-06-09 22:47:00,67.6,66.0,29.76,SE,125,0.0,1.0,95,0.00,,,0.04,weatherlink.com 1.10,2013-06-10 02:47:00,
2013-06-09 23:02:00,67.6,66.0,29.76,SE,134,0.0,1.0,95,0.00,,,0.04,weatherlink.com 1.10,2013-06-10 03:02:00,
2013-06-09 23:17:00,67.7,66.0,29.76,SSW,202,1.0,4.0,95,0.00,,,0.04,weatherlink.com 1.10,2013-06-10 03:17:00,
2013-06-09 23:32:00,68.0,67.0,29.76,SSW,210,1.0,5.0,95,0.00,,,0.04,weatherlink.com 1.10,2013-06-10 03:32:00,
2013-06-09 23:47:00,68.3,67.0,29.75,SE,139,6.0,6.0,94,0.00,,,0.04,weatherlink.com 1.10,2013-06-10 03:47:00,